{"data":{"norad_id":69557,"epoch":"2026-09-19T19:17:59.321184Z","epoch_age_seconds":81795,"freshness":"FRESH","line1":"1 69557U 26135M   26262.80415881  .00019566  00000+0  60661-3 0  9990","line2":"2 69557  97.2850 290.5018 0000880 115.4930 244.6404 15.33455350 14899","mean_motion":15.3345535,"eccentricity":8.8e-5,"inclination_deg":97.285,"raan_deg":290.5018,"arg_perigee_deg":115.493,"mean_anomaly_deg":244.6404,"bstar":0.00060661,"rev_number":1489,"period_min":93.90557084039,"perigee_km":464.91013918771,"apogee_km":466.11462147865,"semimajor_km":6843.6493803332,"source":"CELESTRAK","updated_at":"2026-09-20T09:00:44.243830Z"}}